www.pogodaiklimat.ru
ПОГОДА в Самарском

Архив погоды в Самарском (Восточно-Казахстанская область, Казахстан)

Время
(UTC), дата
09 9.07
12 9.07
15 9.07
18 9.07
21 9.07
00 10.07
03 10.07
06 10.07
09 10.07
12 10.07
15 10.07
18 10.07
21 10.07
00 11.07
03 11.07
06 11.07
09 11.07
12 11.07
15 11.07
18 11.07
21 11.07
00 12.07
03 12.07
06 12.07
09 12.07
12 12.07
15 12.07
18 12.07
21 12.07
00 13.07
03 13.07
06 13.07
09 13.07
12 13.07
15 13.07
18 13.07
21 13.07
00 14.07
03 14.07
06 14.07
09 14.07
12 14.07
15 14.07
18 14.07
21 14.07
00 15.07
03 15.07
06 15.07
09 15.07
12 15.07
15 15.07
18 15.07
21 15.07
00 16.07
03 16.07
Ветер
(напр.,м/с)
Видим. Явления Облачность Т
(С)
Тd
(С)
f
(%)
Тe
(С)
Тes
(С)
Комфортность P
(гПа)
Po
(гПа)
Тmin
(С)
Tmax
(С)
R
(мм)
R24
(мм)
S
(см)
ЮЗ 2 50 км 9/3 1000 м
[Cb cap Ac trans Ci ing]
+25.2 +17.7 63 +29 +34 душно 1005.4 950.6
штиль 0 50 км в посл. час ливневой дождь 9/4 1000 м
[Cb cap Ac trans Ci ing]
+20.0 +17.4 85 +23 +24 комфорт 1006.8 951.0
штиль 0 50 км 9/4 1000 м
[Cb cap Ac trans Ci ing]
+19.8 +19.0 95 +23 +23 комфорт 1008.4 952.5 +26.0
ЮВ 2 н/о 9/4 1000 м
[Cb cap Ac trans Ci ing]
+18.2 +17.7 97 +19 +19 1009.0 952.7 +26.0 0.8
штиль 0 н/о 10/4 1000 м
[Cb cap Ac und]
+17.9 +16.8 93 +18 +18 1008.5 952.2
штиль 0 50 км 9/6 1000 м
[Cb cap Ac trans Ci ing]
+18.2 +16.6 90 +19 +19 1009.0 952.7
Ю 2 50 км 8/4 1000 м
[Cb cap Ac trans Ci ing]
+20.6 +17.4 82 +25 +29 комфорт 1009.5 953.6
В 2 50 км в посл. час гроза 9/4 1000 м
[Cb cap Ac trans Ci ing]
+23.4 +16.9 67 +29 +35 душно 1008.4 953.1 +17.7
З 4 50 км 8/4 1000 м
[Cb cap Ac trans Ci ing]
+26.0 +15.9 54 +29 +33 душно 1006.9 952.1
С 4 50 км 6/3 1000 м
[Cb cap Ac trans Ci ing]
+25.0 +9.4 37 +26 +27 жарко 1008.1 952.9
С 4 50 км 4/1 1000 м
[Cb calv Ac trans Ci ing]
+19.9 +11.4 58 +21 +21 комфорт 1010.1 953.9 +27.1
штиль 0 н/о 3/0
[Ac lent Ci ing]
+17.5 +11.4 67 +18 +18 1010.6 953.9 +27.1
штиль 0 н/о ясно +14.3 +11.4 83 +14 +14 1010.7 953.4
штиль 0 50 км ясно +16.7 +11.3 70 +17 +18 1010.5 953.7
С 2 50 км ясно +22.4 +12.4 53 +25 +35 комфорт 1009.7 954.0
В 6 50 км 3/3 1500 м
[Cu med, cong]
+25.4 +14.0 49 +28 +32 жарко 1008.3 953.3 +14.3
СВ 6 50 км 3/3 1500 м
[Cu med, cong]
+27.4 +12.0 38 +29 +32 жарко 1007.3 952.6
С 6 50 км 1/1 1500 м
[Cu med, cong]
+26.6 +9.4 34 +27 +28 жарко 1006.8 952.0
С 6 н/о ясно +22.8 +11.4 49 +25 +25 комфорт 1007.5 952.0 +27.6
ЮВ 2 н/о ясно +20.0 +12.1 60 +22 +22 комфорт 1007.8 951.8 +27.6
С 2 н/о ясно +15.7 +12.5 81 +16 +16 1007.3 950.5
Ю 2 50 км ясно +16.5 +12.6 78 +17 +18 1006.8 950.2
В 2 50 км ясно +24.2 +11.6 45 +26 +35 жарко 1004.8 949.7
В 4 50 км ясно +26.4 +14.5 48 +29 +41 жарко 1003.1 948.5 +13.4
ЮВ 4 н/о ясно +28.5 +14.8 43 +31 +37 душно 1001.2 947.1 +29.7
В 4 50 км 1/1
[Cu med, cong]
+28.7 +13.6 40 +31 +32 жарко 1000.6 946.6
СВ 2 н/о ясно +22.6 +15.2 63 +26 +26 жарко 1001.7 946.6 +29.7
С 4 н/о ясно +19.8 +13.5 67 +22 +22 комфорт 1002.1 946.4 +29.7
С 2 н/о ясно +18.0 +13.3 74 +19 +19 1002.3 946.2
СЗ 2 50 км 3/0
[Ci fib]
+18.8 +14.2 75 +20 +21 1002.4 946.5
В 2 50 км 3/0
[Ci ing]
+24.8 +16.0 58 +28 +37 жарко 1001.7 947.0
ЮЗ 2 50 км 3/3 1000 м
[Cb calv Ci ing]
+29.5 +13.4 37 +31 +43 жарко 1001.0 947.1 +17.4
Ю 2 50 км 4/3 1000 м
[Cb calv Ac cast]
+32.1 +12.8 31 +33 +41 жарко 999.5 946.1
Ю 2 50 км 6/0
[Ac cast Ci ing]
+31.5 +10.1 27 +31 +33 жарко 999.1 945.6
штиль 0 н/о 8/3 1000 м
[Cb cap Ac trans Ci ing]
+25.2 +16.7 59 +29 +29 душно 1000.4 945.8 +32.6
С 6 н/о гроза без осадков {ливн. дождь} 9/4 1000 м
[Cb cap Ac trans Ci ing]
+21.4 +15.0 67 +25 +25 комфорт 1001.3 946.0 +32.6
С 10 н/о гроза без осадков {ливн. дождь} 8/4 1000 м
[Cb cap Ac trans Ci ing]
+21.8 +14.7 64 +25 +25 комфорт 1000.8 945.6
СЗ 2 50 км {гроза, ливн. дождь} 9/3 1000 м
[Cb cap Ac trans Ci ing]
+20.6 +14.4 68 +24 +24 комфорт 1002.0 946.5
штиль 0 50 км 9/3 1000 м
[Cb cap Ac trans Ci ing]
+26.6 +13.1 43 +28 +33 жарко 1001.7 947.2
В 6 50 км 9/4 1000 м
[Cb cap Ac trans Ci ing]
+25.8 +17.5 60 +30 +32 душно 1001.1 946.6 +19.2 5
В 6 50 км 6/3 1000 м
[Cb cap Ac lent Ci ing]
+30.3 +15.0 39 +32 +35 жарко 1000.2 946.5
В 4 50 км 3/0
[Ci]
+29.9 +16.1 43 +33 +35 душно 999.3 945.6
С 2 н/о 3/0
[Ci ing]
+25.2 +17.2 61 +29 +29 душно 1001.0 946.4 +31.3
С 4 н/о 3/0
[Ci ing]
+23.0 +13.0 53 +26 +26 жарко 1001.9 946.8 +31.3
С 2 н/о 3/0
[Ci ing]
+21.6 +14.1 62 +24 +24 комфорт 1002.0 946.6
В 2 50 км 8/0
[Ac trans Ci ing]
+21.0 +14.5 66 +25 +25 комфорт 1002.5 947.0
В 2 50 км 9/0
[Ac trans Ci ing]
+25.2 +17.4 62 +29 +35 душно 1001.8 947.2
В 2 50 км 9/0
[Ac trans Ci ing]
+31.1 +17.2 43 +35 +45 очень душно 1000.5 947.0 +19.9
С 4 50 км 10/3 1000 м
[Cb cap Ac und]
+32.7 +16.2 37 +35 +40 душно 1000.1 946.8
В 2 50 км 10/3 1000 м
[Cb cap Ac und]
+30.5 +18.0 47 +35 +35 очень душно 1000.7 947.1
штиль 0 н/о {ливн. дождь} 10/4 1000 м
[Cb cap Ac und]
+25.2 +16.5 59 +29 +29 душно 1002.0 947.3 +32.7
С 2 н/о {ливн. дождь} 10/4 1000 м
[Cb cap Ac und]
+23.2 +16.6 66 +28 +28 душно 1002.9 947.8 +32.7 0.0
С 4 н/о 10/4 1000 м
[Cb cap Ac und]
+24.7 +13.5 50 +27 +27 жарко 1002.9 948.0
С 2 50 км {ливн. дождь} 10/6 1000 м
[Cb cap Ac und]
+21.6 +16.3 72 +25 +25 комфорт 1004.3 948.9
штиль 0 50 км 4/3 1000 м
[Cb cap Ac trans]
+24.2 +17.8 67 +28 +36 душно 1004.4 949.5
Местоположение метеостанции Самарское (Восточно-Казахстанская область, Казахстан): широта 49.02 долгота 83.36 высота над уровнем моря 510 м.
В архиве по умолчанию представлена погода в Самарском за последнюю неделю. Архивные данные за месяц целиком и за предыдущие месяцы, начиная с января 2011 года, Вы можете получить, выбрав интересующий диапазон дат из раскрывающегося списка и нажав кнопку "Найти!".
*Определитесь, кто Вы:
Внимание! Время в таблицах - всемирное. Для получения местного времени необходимо прибавить поправку, которая равна 6 ч.
Некоторые строки с данными для отдельных станций могут быть выделены курсивом. Это означает, что фактические данные отсутствуют по различным причинам, а приведенные значения являются расчетными модельными данными для данного пункта наблюдений.
Смотрите также архив погоды в соседних городах и на ближайших метеорологических станциях:
Партнеры нашего сайта:      
Пояснения к столбцам:
  • Ветер - указаны скорость ветра в м/с - средняя за 10 мин, порывы в срок и между сроками (в фигурных скобках) и направление, откуда дует ветер: С - северный,
  • СВ - северо-восточный, В - восточный, ЮВ - юго-восточный, Ю - южный, ЮЗ - юго-западный, З - западный, СЗ - северо-западный.
  • Видимость - горизонтальная дальность видимости в метрах или километрах. При видимости от 1 до 10 км при отсутствии осадков обычно наблюдается дымка, при ухудшении видимости до 1 км и менее - туман. В сухую погоду видимость может ухудшаться дымом, пылью или мглою.
  • Явления - указаны атмосферные явления, наблюдавшиеся в срок или в последний час перед сроком; фигурными скобками обозначены явления, наблюдавшиеся между сроками (за 1-3 часа до срока); квадратными скобками обозначены град или гололедные отложения с указанием их диаметра в мм.
  • Облачность - указаны через наклонную черту общая и нижняя облачность в баллах и высота нижней границы облаков в метрах; квадратными скобками обозначены формы облаков: Ci - перистые, Cs - перисто-слоистые, Cc - перисто-кучевые, Ac - высококучевые, As - высокослоистые, Sc - слоисто-кучевые, Ns - слоисто-дождевые, Cu - кучевые, Cb - кучево-дождевые. Подробнее классификацию облаков см. в Атласе облаков (PDF).
  • T - Температура воздуха - температура, измеренная на высоте 2 м над землей.
  • Td - Температура точки росы - температура, при понижении до которой содержащийся в воздухе водяной пар достигнет насыщения.
  • f - Относительная влажность воздуха - влажноcть воздуха, измеренная на высоте 2 м над землей.
  • Te - Эффективная температура - температура, которую ощущает одетый по сезону человек в тени. Характеристика душности погоды. При расчете учитывается влияние влажности воздуха и скорости ветра на теплоощущения человека.
  • Tes - Эффективная температура на солнце - температура, которую ощущает человек, с поправкой на солнечный нагрев. Характеристика знойности погоды. Зависит от высоты солнца над горизонтом, облачности и скорости ветра. Ночью, в пасмурную погоду, а также при ветре 12 м/с и более поправка равна нулю.
  • P - Атмосферное давление - приведенное к уровню моря атмосферное давление.
  • Po - Атмосферное давление - измеренное на уровне метеостанции атмосферное давление.
  • Tmin - Минимальная температура - минимум температуры воздуха на высоте 2 м над землей.
  • Tmax - Максимальная температура - максимум температуры воздуха на высоте 2 м над землей.
  • R - Количество осадков - Количество выпавших осадков за период времени, мм. При наведении курсора мыши на число - период времени, за который выпало указанное количество осадков.
  • R24 - Количество осадков - Количество выпавших осадков за 24 часа, мм.
  • S - Снежный покров - Высота снежного покрова, см. При наведении курсора мыши на число - состояние снежного покрова и степень покрытия местности в баллах.